Tiempo cada hora Dahovskaya

Hoy, 26 Noviembre, Jueves

Tiempo Temperatura Precipitaciones Viento Presión Humedad
00:00 +2°C° 0 mm 1 mps 722 mmHg 82%
01:00 +2°C° 0 mm 1 mps 722 mmHg 83%
02:00 +3°C° 0 mm 1 mps 722 mmHg 84%
03:00 +2°C° 0 mm 2 mps 721 mmHg 83%
04:00 +2°C° 0.1 mm 2 mps 721 mmHg 82%
05:00 +2°C° 0.1 mm 2 mps 721 mmHg 81%
06:00 +2°C° 0.1 mm 2 mps 721 mmHg 81%
07:00 +2°C° 0.7 mm 2 mps 721 mmHg 84%
08:00 +3°C° 0.7 mm 1 mps 722 mmHg 87%
09:00 +3°C° 0 mm 1 mps 722 mmHg 88%
10:00 +4°C° 0.3 mm 1 mps 722 mmHg 88%
11:00 +4°C° 0.3 mm 1 mps 722 mmHg 88%
12:00 +5°C° 0.3 mm 1 mps 722 mmHg 88%
13:00 +5°C° 0 mm 1 mps 722 mmHg 89%
14:00 +5°C° 0 mm 1 mps 722 mmHg 90%
15:00 +5°C° 0 mm 1 mps 722 mmHg 91%
16:00 +4°C° 0 mm 1 mps 722 mmHg 92%
17:00 +4°C° 0 mm 1 mps 722 mmHg 93%
18:00 +3°C° 0 mm 1 mps 723 mmHg 93%
19:00 +2°C° 0 mm 0 mps 723 mmHg 93%
20:00 +2°C° 0 mm 0 mps 723 mmHg 92%
21:00 +1°C° 0 mm 0 mps 723 mmHg 91%
22:00 +1°C° 0 mm 0 mps 723 mmHg 90%
23:00 +2°C° 0 mm 1 mps 724 mmHg 89%

Mañana, 27 Noviembre, Viernes

Tiempo Temperatura Precipitaciones Viento Presión Humedad
00:00 +1°C° 0 mm 1 mps 724 mmHg 87%
01:00 +1°C° 0 mm 1 mps 724 mmHg 86%
02:00 +1°C° 0 mm 1 mps 724 mmHg 85%
03:00 +1°C° 0 mm 1 mps 724 mmHg 84%
04:00 +1°C° 0 mm 1 mps 724 mmHg 83%
05:00 +1°C° 0 mm 1 mps 724 mmHg 81%
06:00 +1°C° 0 mm 1 mps 724 mmHg 79%
07:00 +2°C° 0 mm 1 mps 725 mmHg 75%
08:00 +3°C° 0 mm 1 mps 725 mmHg 71%
09:00 +4°C° 0 mm 1 mps 725 mmHg 67%
10:00 +6°C° 0 mm 1 mps 725 mmHg 65%
11:00 +7°C° 0 mm 1 mps 725 mmHg 62%
12:00 +9°C° 0 mm 1 mps 725 mmHg 59%
13:00 +9°C° 0 mm 1 mps 725 mmHg 62%
14:00 +9°C° 0 mm 1 mps 724 mmHg 65%
15:00 +8°C° 0 mm 1 mps 724 mmHg 68%
16:00 +7°C° 0 mm 1 mps 724 mmHg 72%
17:00 +6°C° 0 mm 1 mps 724 mmHg 75%
18:00 +4°C° 0 mm 1 mps 724 mmHg 79%
19:00 +4°C° 0 mm 1 mps 724 mmHg 76%
20:00 +4°C° 0 mm 1 mps 724 mmHg 74%
21:00 +4°C° 0 mm 1 mps 724 mmHg 72%
22:00 +4°C° 0 mm 1 mps 724 mmHg 70%
23:00 +4°C° 0 mm 1 mps 723 mmHg 68%

Pasado mañana, 28 Noviembre, Sábado

Tiempo Temperatura Precipitaciones Viento Presión Humedad
00:00 +4°C° 0 mm 1 mps 723 mmHg 67%
01:00 +4°C° 0 mm 1 mps 723 mmHg 65%
02:00 +4°C° 0 mm 1 mps 723 mmHg 64%
03:00 +4°C° 0 mm 1 mps 723 mmHg 63%
04:00 +4°C° 0 mm 1 mps 723 mmHg 62%
05:00 +5°C° 0 mm 1 mps 723 mmHg 60%
06:00 +5°C° 0 mm 1 mps 722 mmHg 59%
07:00 +6°C° 0 mm 1 mps 722 mmHg 58%
08:00 +7°C° 0 mm 1 mps 722 mmHg 56%
09:00 +7°C° 0 mm 1 mps 723 mmHg 55%
10:00 +9°C° 0 mm 1 mps 722 mmHg 53%
11:00 +10°C° 0 mm 0 mps 722 mmHg 51%
12:00 +12°C° 0 mm 0 mps 722 mmHg 49%
13:00 +12°C° 0 mm 0 mps 722 mmHg 53%
14:00 +11°C° 0 mm 0 mps 722 mmHg 58%
15:00 +11°C° 0 mm 0 mps 722 mmHg 62%
16:00 +10°C° 0 mm 1 mps 722 mmHg 64%
17:00 +9°C° 0 mm 1 mps 722 mmHg 66%
18:00 +7°C° 0 mm 1 mps 721 mmHg 68%
19:00 +7°C° 0 mm 1 mps 722 mmHg 64%
20:00 +7°C° 0 mm 1 mps 722 mmHg 61%
21:00 +6°C° 0 mm 2 mps 722 mmHg 58%
22:00 +6°C° 0 mm 2 mps 722 mmHg 56%
23:00 +6°C° 0 mm 2 mps 722 mmHg 53%

29 Noviembre, Domingo

Tiempo Temperatura Precipitaciones Viento Presión Humedad
00:00 +6°C° 0 mm 2 mps 722 mmHg 51%
01:00 +5°C° 0 mm 2 mps 722 mmHg 49%
02:00 +5°C° 0 mm 2 mps 722 mmHg 48%
03:00 +5°C° 0 mm 2 mps 722 mmHg 47%
04:00 +5°C° 0 mm 2 mps 722 mmHg 46%
05:00 +6°C° 0 mm 1 mps 722 mmHg 45%
06:00 +6°C° 0 mm 1 mps 722 mmHg 45%
07:00 +7°C° 0 mm 1 mps 722 mmHg 45%
08:00 +7°C° 0 mm 1 mps 722 mmHg 45%
09:00 +8°C° 0 mm 1 mps 723 mmHg 46%
10:00 +10°C° 0 mm 1 mps 723 mmHg 44%
11:00 +12°C° 0 mm 1 mps 723 mmHg 43%
12:00 +12°C° 0 mm 0 mps 723 mmHg 42%
13:00 +13°C° 0 mm 1 mps 722 mmHg 45%
14:00 +13°C° 0 mm 1 mps 722 mmHg 49%
15:00 +12°C° 0 mm 1 mps 722 mmHg 53%
16:00 +11°C° 0 mm 1 mps 722 mmHg 56%
17:00 +9°C° 0 mm 1 mps 722 mmHg 59%
18:00 +7°C° 0 mm 1 mps 722 mmHg 61%
19:00 +7°C° 0 mm 1 mps 722 mmHg 59%
20:00 +7°C° 0 mm 1 mps 722 mmHg 57%
21:00 +7°C° 0 mm 1 mps 722 mmHg 55%
22:00 +7°C° 0 mm 1 mps 722 mmHg 53%
23:00 +7°C° 0 mm 1 mps 722 mmHg 51%

30 Noviembre, Lunes

Tiempo Temperatura Precipitaciones Viento Presión Humedad
00:00 +6°C° 0 mm 1 mps 722 mmHg 49%
01:00 +6°C° 0 mm 1 mps 721 mmHg 48%
02:00 +6°C° 0 mm 1 mps 721 mmHg 47%
03:00 +6°C° 0 mm 1 mps 721 mmHg 45%
04:00 +6°C° 0 mm 1 mps 721 mmHg 44%
05:00 +6°C° 0 mm 1 mps 721 mmHg 44%
06:00 +6°C° 0 mm 1 mps 721 mmHg 43%
07:00 +6°C° 0 mm 1 mps 721 mmHg 42%
08:00 +7°C° 0 mm 1 mps 721 mmHg 42%
09:00 +7°C° 0 mm 1 mps 721 mmHg 42%
10:00 +9°C° 0 mm 1 mps 721 mmHg 42%
11:00 +10°C° 0 mm 1 mps 720 mmHg 42%
12:00 +12°C° 0 mm 1 mps 720 mmHg 42%
13:00 +11°C° 0 mm 1 mps 720 mmHg 48%
14:00 +11°C° 0 mm 1 mps 720 mmHg 53%
15:00 +10°C° 0 mm 1 mps 719 mmHg 59%
16:00 +9°C° 0 mm 1 mps 719 mmHg 63%
17:00 +7°C° 0 mm 1 mps 719 mmHg 67%
18:00 +5°C° 0 mm 1 mps 719 mmHg 71%
19:00 +5°C° 0 mm 1 mps 719 mmHg 68%
20:00 +5°C° 0 mm 1 mps 719 mmHg 65%
21:00 +5°C° 0 mm 1 mps 719 mmHg 62%
22:00 +4°C° 0 mm 2 mps 719 mmHg 62%
23:00 +4°C° 0 mm 2 mps 719 mmHg 62%

1 Diciembre, Martes

Tiempo Temperatura Precipitaciones Viento Presión Humedad
00:00 +4°C° 0 mm 2 mps 718 mmHg 62%
01:00 +4°C° 0 mm 2 mps 718 mmHg 62%
02:00 +4°C° 0 mm 2 mps 718 mmHg 62%
03:00 +4°C° 0 mm 2 mps 718 mmHg 62%
04:00 +3°C° 0 mm 2 mps 718 mmHg 61%
05:00 +3°C° 0 mm 2 mps 718 mmHg 61%
06:00 +4°C° 0 mm 1 mps 718 mmHg 60%
07:00 +5°C° 0 mm 1 mps 719 mmHg 59%
08:00 +6°C° 0 mm 1 mps 719 mmHg 57%
09:00 +6°C° 0 mm 1 mps 719 mmHg 56%
10:00 +8°C° 0 mm 1 mps 719 mmHg 53%
11:00 +10°C° 0 mm 1 mps 719 mmHg 51%
12:00 +11°C° 0 mm 1 mps 719 mmHg 48%
13:00 +11°C° 0 mm 1 mps 719 mmHg 51%
14:00 +11°C° 0 mm 1 mps 719 mmHg 54%
15:00 +10°C° 0 mm 1 mps 719 mmHg 57%
16:00 +9°C° 0 mm 1 mps 719 mmHg 62%
17:00 +7°C° 0 mm 1 mps 719 mmHg 66%
18:00 +6°C° 0 mm 1 mps 719 mmHg 71%
19:00 +6°C° 0 mm 1 mps 719 mmHg 69%
20:00 +6°C° 0 mm 1 mps 719 mmHg 68%
21:00 +6°C° 0 mm 1 mps 719 mmHg 66%
22:00 +6°C° 0 mm 1 mps 719 mmHg 64%
23:00 +6°C° 0 mm 1 mps 719 mmHg 62%
Mostrar más

Necesitamos Su Consentimiento

Meteoprog y nuestros Proveedores de Servicios pueden almacenar y acceder a sus datos personales como cookies, identificadores de dispositivo u otras tecnologías similares de su dispositivo y procesar dichos datos para personalizar contenido y anuncios, además de ofrecer funciones de redes sociales y analizar el tráfico.

  • Almacenar y/o acceder a información en su dispositivo

    Se puede almacenar o acceder a cookies, identificadores de dispositivo u otra información de su dispositivo para los fines anteriormente indicados.

  • Anuncios y contenido personalizados, medición de anuncios y contenido, percepciones del público, y desarrollo de productos

    Los anuncios y el contenido pueden personalizarse en base a su perfil. Se pueden añadir más datos para personalizar mejor los anuncios y contenidos. Se puede medir el rendimiento de los anuncios y contenidos. Se puede obtener la percepción sobre el público que ha visto los anuncios y contenidos. Dichos datos pueden usarse para desarrollar o mejorar la experiencia del usuario, sistemas y software.

Al hacer clic en ‘Estoy De Acuerdo’ usted permitirá el uso de las cookies, identificadores de dispositivo, balizas web u otras tecnologías similares indicadas. Su configuración puede cambiarse desde el navegador de su dispositivo.

Para ciertos fines, los intereses legítimos pueden ser considerados por encima del consentimiento. Puede leer más sobre ello en nuestra Política de Privacidad y Cookies.